星链-33553 (STARLINK-33553)

导读

STARLINK-33553是美国SpaceX星链星座的卫星,于2024年11月25日发射。星链计划旨在构建全球卫星互联网,为全球偏远、无网络覆盖区域提供高速宽带服务。该卫星延续星链批量部署策略,进一步完善低轨卫星星座组网,提升全球网络覆盖范围与服务稳定性,推动星链星座商业与应用生态发展。

基本信息
目录编号:
62108
目录名称:
STARLINK-33553
国际标识:
2024-220W
轨道中心:
EARTH
卫星名称:
星链-33553
卫星全名:
星链-33553 (STARLINK-33553)
卫星状态:
在轨 (已飞行569 天)
发射日期:
2024-11-25 UTC
国别 :
美国 (US)
星等 :
--
轨道信息
数据来源 国际轨道数据
星历时间: 2026-06-17T03:55:48+0800
23小时前
查看轨道信息
半长轴: 6861.146km
偏心率: 0.0003765
轨道倾角: 42.999°
近地点辐角 281.216°
升交点赤经 5.635°
平近点角 78.826°
近地点: 480.425km
远地点: 485.593km
周期: 94.266分钟
每日圈数: 15.275937
详细信息
固有亮度:
5
最大亮度:
2.5
卫星平台:
Starlink V1.0
覆盖范围:
全球
运营商:
太空探索技术公司
运营商所在国:
美国
制造商(研发单位):
太空探索技术公司
制造商所在国:
美国
使用方式:
暂无
卫星简介
Starlink 计划是 SpaceX 推出的全球卫星互联网项目,通过发射低轨道卫星,为全球尤其是偏远地区提供高速、低延迟的互联网服务。自 2019 年起,Starlink 已部署数千颗卫星,旨在缩小全球数字鸿沟,推动互联网普及。该项目还为军事、航空等行业提供通信支持,带来广泛经济效益。
2D轨道图
3D轨道图
轨道高度分析图
轨道倾角分析图
轨道综合分析图
查看轨道综合分析图